Location: Tr�vern
(48.0333°N, 4.6000°W)
Time: 00:43:10
(UTC+00:00)

ADEOS II - Visible Passes

Search period start: 24 October 2020 00:00
Search period end: 03 November 2020 00:00
Orbit: 799 x 801 km, 98.5° (Epoch: 23 October)

Date Brightness Start Highest point End Pass type
(mag) Time Alt. Az. Time Alt. Az. Time Alt. Az.
24 Oct 4.7 02:41:54 10° NNE 02:42:32 14° NNE 02:42:32 14° NNE visible
24 Oct 4.3 04:22:46 10° NNW 04:23:28 12° NNW 04:23:28 12° NNW visible
25 Oct 5.0 02:15:27 10° NNE 02:15:31 10° NNE 02:15:31 10° NNE visible
25 Oct 4.3 03:55:35 10° N 03:56:27 14° N 03:56:27 14° N visible
26 Oct 4.4 03:28:40 10° N 03:29:26 14° N 03:29:26 14° N visible
27 Oct 4.7 03:01:55 10° N 03:02:25 13° N 03:02:25 13° N visible
28 Oct 4.9 02:35:20 10° NNE 02:35:25 10° NNE 02:35:25 10° NNE visible
28 Oct 4.4 04:16:00 10° NNW 04:16:21 11° NNW 04:16:21 11° NNW visible
29 Oct 4.5 03:48:54 10° N 03:49:20 12° N 03:49:20 12° N visible
30 Oct 4.7 03:22:01 10° N 03:22:19 12° N 03:22:19 12° N visible
31 Oct 4.9 02:55:18 10° NNE 02:55:19 10° NNE 02:55:19 10° NNE visible
02 Nov 4.7 03:42:13 10° N 03:42:14 10° N 03:42:14 10° N visible
